Regional Weather Roundup
Issued by NWS

Home | Current Version | Previous Version | Graphics & Text | Print | Product List | Glossary Off
Versions: 1 2 3 4 5 6 7 8 9 10 11 12 13 14 15 16 17 18 19 20 21 22 23 24 25 26 27 28 29 30 31 32 33 34 35 36 37 38 39 40 41 42 43 44 45 46 47 48 49 50

000
ASUS43 KMPX 261101
RWRMN
WEATHER ROUNDUP FOR MINNESOTA
NATIONAL WEATHER SERVICE TWIN CITIES/CHANHASSEN MN
600 AM CDT MON SEP 26 2016


NOTE: "FAIR" INDICATES FEW OR NO CLOUDS BELOW 12,000 FEET WITH NO
SIGNIFICANT WEATHER AND/OR OBSTRUCTIONS TO VISIBILITY. N/A MEANS
CURRENT SKY AND/OR WEATHER CONDITIONS ARE NOT AVAILABLE.

MNZ060>063-068>070-261200-
   Twin Cities Metro

CITY           SKY/WX    TMP DP  RH WIND       PRES   REMARKS
TWIN CITIES    PTCLDY    52  40  63 W15G24    29.93S
ST PAUL        CLEAR     52  40  63 W14       29.93S
CRYSTAL        PTCLDY    51  38  60 W13       29.92R
BLAINE         CLEAR     52  43  71 W9G16     29.92R
LAKEVILLE      CLEAR     48  39  71 W15G22    29.95S
EDEN PRAIRIE   CLEAR     52  41  66 W9G21     29.94R
LAKEVILLE      CLEAR     48  39  71 W15G22    29.95S
SOUTH ST PAUL  PTCLDY    52  40  65 W9        29.93S
LAKE ELMO      FAIR      52  43  71 W14G21    29.92S
$$
MNZ001>005-007-008-013>017-022>024-027-028-261200-
   Northwest Minnesota

CITY           SKY/WX    TMP DP  RH WIND       PRES   REMARKS
BEMIDJI        PTCLDY    47  39  74 W16G23    29.83S
HALLOCK        PTCLDY    50  39  66 NW17G24   29.88S
ROSEAU         PTCLDY    48  43  81 W13G21    29.80R
THIEF RVR FALL CLEAR     47  39  74 NW17      29.88S
CROOKSTON      CLEAR     46  39  76 NW15      29.92R
FOSSTON        PTCLDY    45  39  81 W15G21    29.89S
DETROIT LAKES  CLEAR     46  37  71 W16       29.94S
MOORHEAD       CLEAR     46  36  66 W14       29.97S
PARK RAPIDS    CLEAR     46  38  73 W14       29.88S
MAHNOMEN       PTSUNNY   44  38  81 W15       29.90F
$$
MNZ006-009>011-018-025>026-261200-
   North Central Minnesota

CITY           SKY/WX    TMP DP  RH WIND       PRES   REMARKS
BAUDETTE       LGT RAIN  48  44  86 W16       29.73R
FLAG ISLAND    CLOUDY    50  45  81 W26G32    29.70S
INTL FALLS     RAIN      49  47  93 W16G28    29.66R
WASKISH        CLOUDY    50  45  81 W23G31    29.77S
BIG FORK       LGT RAIN  48  45  87 W8        29.74S
GRAND RAPIDS   PTCLDY    48  44  86 W15G23    29.78S
ORR            DRIZZLE   48  45  87 W14G26    29.63S
COOK           LGT RAIN  48  46  93 W15G24    29.66S
WALKER         FAIR      45  39  80 W14       29.84S
$$
MNZ012-019>021-037-261200-
   Northeast Minnesota

CITY           SKY/WX    TMP DP  RH WIND       PRES   REMARKS
DULUTH         LGT RAIN  49  47  93 W18G31    29.70S
ELY            DRIZZLE   48  46  93 W15G22    29.60S
HIBBING        LGT RAIN  47  45  93 W15G25    29.70S
EVELETH        LGT RAIN  50  47  90 W15G24    29.69S
DULUTH HARBOR  LGT RAIN  52  48  87 SW16G23   29.72S
TWO HARBORS    LGT RAIN  54  48  82 W15G23    29.64S
SILVER BAY     DRIZZLE   52  48  87 W7        29.59F
GRAND MARAIS     N/A     53  53 100 W6        29.53F
G MARAIS ARPRT RAIN      48  45  87 W7        29.53F
$$
MNZ029>031-032-039>041-046>048-054>057-064-261200-
   West Central Minnesota

CITY           SKY/WX    TMP DP  RH WIND       PRES   REMARKS
FERGUS FALLS   CLEAR     45  37  76 W10       30.01R
MORRIS         CLEAR     48  37  66 W16       30.00S
ALEXANDRIA     CLEAR     47  39  74 W13       29.98R
ELBOW LAKE     FAIR      46  37  73 NW13G18   29.99S
WADENA         CLEAR     46  37  71 W13G18    29.92R
GLENWOOD       CLEAR     46  39  76 W14G20    29.98S
BENSON         CLEAR     48  36  61 NW15      30.01S
MADISON          N/A     48  39  71 W10       30.07R
WILLMAR        FAIR      48  41  76 W12       30.02R
$$
MNZ033>034-036-042>043-049>051-058-059-261200-
   Central Minnesota

CITY           SKY/WX    TMP DP  RH WIND       PRES   REMARKS
ST CLOUD       CLEAR     49  40  71 W13       29.92S
SAUK CENTRE    FAIR      46  38  73 W13       29.96R
PAYNESVILLE    CLEAR     46  39  74 W9        29.98R
AITKIN         CLOUDY    52  41  66 W12G20    29.81S
PINE RIVER     CLEAR     46  41  81 W8        29.89S
BRAINERD       CLEAR     49  40  71 W13       29.87S
STAPLES        CLEAR     45  37  76 W9        29.90S
LITTLE FALLS   CLEAR     46  37  71 W9G16     29.91S
BUFFALO        CLEAR     50  40  68 W10G18    29.96R
MAPLE LAKE     CLEAR     51  41  69 W8        29.95S
HUTCHINSON     CLEAR     49  41  73 W10G16    30.00R
$$
MNZ037-044-045-052-053-261200-
   East Central Minnesota

CITY           SKY/WX    TMP DP  RH WIND       PRES   REMARKS
PRINCETON      CLEAR     50  41  71 W10G17    29.91R
MORA           CLOUDY    50  41  71 W10       29.87S
CAMBRIDGE      CLOUDY    52  39  62 W13       29.88R
MOOSE LAKE     CLOUDY    50  43  76 W12G17    29.77S
HINCKLEY       PTSUNNY   50  45  81 W14       29.83S
CLOQUET        CLOUDY    48  45  87 W13G23    29.74R
MCGREGOR       MOCLDY    48  45  87 W10G18    29.80S
$$
MNZ071>073-080-081-089-090-097-098-261200-
   Southwest Minnesota

CITY           SKY/WX    TMP DP  RH WIND       PRES   REMARKS
MONTEVIDEO     CLEAR     48  37  66 NW9G16    30.05S
GRANITE FALLS  CLEAR     48  39  71 W12G17    30.06S
CANBY          CLEAR     49  37  65 NW16G22   30.09S
MARSHALL       CLEAR     47  37  68 W13       30.08R
REDWOOD FALLS  CLEAR     49  37  63 W16       30.04R
OLIVIA         CLEAR     50  39  66 W13       30.01S
PIPESTONE      CLEAR     45  36  70 NW6       30.12S
WINDOM         CLEAR     46  37  71 W9        30.08S
WORTHINGTON    CLEAR     44  37  76 W12       30.12S
JACKSON        CLEAR     46  36  66 W12       30.10S
TRACY          CLEAR     48  38  68 W7        30.08S
$$
MNZ065>067-074>077-082>085-091>093-261200-
   South Central Minnesota

CITY           SKY/WX    TMP DP  RH WIND       PRES   REMARKS
MANKATO        CLEAR     51  38  60 W14       30.02R
ST JAMES       CLEAR     50  37  62 W10       30.06S
FAIRMONT       CLEAR     49  38  65 W13       30.07R
GLENCOE        CLEAR     50  42  73 W10G17    29.98S
FARIBAULT      PTCLDY    52  39  62 W14       29.99R
OWATONNA       CLEAR     48  39  71 W10       30.00R
WASECA         CLEAR     50  41  71 W10       30.03R
ALBERT LEA     CLEAR     50  39  66 W10G16    30.03R
$$
MNZ078>079-086>088-094>096-261200-
   Southeast Minnesota

CITY           SKY/WX    TMP DP  RH WIND       PRES   REMARKS
ROCHESTER      CLEAR     49  41  74 W12       29.98S
RED WING       CLEAR     52  41  66 W14       29.92S
STANTON        CLEAR     51  40  68 W10G16    29.95R
DODGE CENTER   PTCLDY    46  39  76 W12       29.98S
WINONA         CLEAR     52  43  71 W9G16     29.95S
AUSTIN         CLEAR     48  39  71 W9        30.01R
PRESTON        CLEAR     47  40  74 W10G16    29.99S
$$
ABBREVIATIONS USED IN REMARKS
   TC - TEMPERATURES IN CELSIUS
  WCI - WIND CHILL INDEX
   HX - HEAT INDEX
  VSB - VISIBILITY
$$



USA.gov is the U.S. government's official web portal to all federal, state and local government web resources and services.